Météo par heure à Allensbach

Ce jour, 15 Mai, Samedi

Heure Température Précipitation Vent Pression Humidité
00:00 +8°C° 0 mm 1 m/s 719 mmHg 93%
01:00 +7°C° 0 mm 1 m/s 719 mmHg 94%
02:00 +7°C° 0 mm 1 m/s 719 mmHg 94%
03:00 +6°C° 0 mm 1 m/s 719 mmHg 94%
04:00 +5°C° 0 mm 1 m/s 718 mmHg 95%
05:00 +6°C° 0 mm 1 m/s 718 mmHg 93%
06:00 +7°C° 0 mm 1 m/s 718 mmHg 91%
07:00 +8°C° 0 mm 1 m/s 719 mmHg 89%
08:00 +10°C° 0 mm 1 m/s 718 mmHg 80%
09:00 +12°C° 0 mm 2 m/s 718 mmHg 71%
10:00 +12°C° 0 mm 3 m/s 718 mmHg 62%
11:00 +13°C° 0 mm 3 m/s 717 mmHg 57%
12:00 +14°C° 0 mm 3 m/s 717 mmHg 52%
13:00 +16°C° 0 mm 3 m/s 716 mmHg 47%
14:00 +13°C° 0.3 mm 4 m/s 716 mmHg 62%
15:00 +11°C° 0.3 mm 4 m/s 717 mmHg 77%
16:00 +8°C° 0.3 mm 4 m/s 717 mmHg 92%
17:00 +9°C° 0.8 mm 3 m/s 717 mmHg 93%
18:00 +9°C° 0.8 mm 3 m/s 717 mmHg 94%
19:00 +8°C° 0.8 mm 3 m/s 717 mmHg 95%
20:00 +8°C° 0.6 mm 3 m/s 717 mmHg 95%
21:00 +8°C° 0.6 mm 3 m/s 717 mmHg 96%
22:00 +8°C° 0.6 mm 3 m/s 717 mmHg 96%
23:00 +8°C° 0.6 mm 3 m/s 717 mmHg 96%

Demain, 16 Mai, Dimanche

Heure Température Précipitation Vent Pression Humidité
00:00 +8°C° 0.6 mm 3 m/s 717 mmHg 95%
01:00 +8°C° 0.6 mm 3 m/s 717 mmHg 95%
02:00 +8°C° 0.4 mm 3 m/s 717 mmHg 95%
03:00 +8°C° 0.4 mm 2 m/s 717 mmHg 96%
04:00 +7°C° 0.4 mm 2 m/s 717 mmHg 96%
05:00 +8°C° 0.2 mm 2 m/s 717 mmHg 95%
06:00 +8°C° 0.2 mm 2 m/s 717 mmHg 94%
07:00 +9°C° 0.2 mm 2 m/s 717 mmHg 93%
08:00 +9°C° 0.3 mm 2 m/s 716 mmHg 93%
09:00 +9°C° 0.3 mm 2 m/s 716 mmHg 93%
10:00 +10°C° 0.3 mm 1 m/s 716 mmHg 93%
11:00 +10°C° 1 mm 2 m/s 716 mmHg 93%
12:00 +10°C° 1 mm 3 m/s 716 mmHg 93%
13:00 +10°C° 1 mm 4 m/s 716 mmHg 93%
14:00 +10°C° 1.8 mm 3 m/s 716 mmHg 93%
15:00 +10°C° 1.8 mm 3 m/s 716 mmHg 93%
16:00 +10°C° 1.8 mm 3 m/s 715 mmHg 92%
17:00 +10°C° 1.1 mm 3 m/s 716 mmHg 92%
18:00 +10°C° 1.1 mm 3 m/s 716 mmHg 93%
19:00 +10°C° 1.1 mm 3 m/s 716 mmHg 93%
20:00 +10°C° 0.4 mm 3 m/s 716 mmHg 92%
21:00 +9°C° 0.4 mm 3 m/s 716 mmHg 92%
22:00 +9°C° 0.4 mm 3 m/s 717 mmHg 92%
23:00 +8°C° 0 mm 3 m/s 717 mmHg 92%

Après-demain, 17 Mai, Lundi

Heure Température Précipitation Vent Pression Humidité
00:00 +7°C° 0 mm 3 m/s 717 mmHg 93%
01:00 +7°C° 0 mm 2 m/s 717 mmHg 94%
02:00 +7°C° 0.1 mm 3 m/s 717 mmHg 93%
03:00 +7°C° 0.1 mm 3 m/s 717 mmHg 93%
04:00 +7°C° 0.1 mm 3 m/s 717 mmHg 92%
05:00 +6°C° 0 mm 4 m/s 718 mmHg 91%
06:00 +7°C° 0 mm 4 m/s 718 mmHg 90%
07:00 +7°C° 0 mm 4 m/s 718 mmHg 88%
08:00 +8°C° 0.1 mm 5 m/s 718 mmHg 80%
09:00 +9°C° 0.1 mm 6 m/s 718 mmHg 72%
10:00 +11°C° 0.1 mm 6 m/s 718 mmHg 64%
11:00 +11°C° 0.2 mm 6 m/s 719 mmHg 64%
12:00 +11°C° 0.2 mm 6 m/s 719 mmHg 64%
13:00 +11°C° 0.2 mm 6 m/s 719 mmHg 64%
14:00 +13°C° 0.2 mm 6 m/s 719 mmHg 63%
15:00 +13°C° 0.2 mm 6 m/s 719 mmHg 62%
16:00 +14°C° 0.2 mm 6 m/s 719 mmHg 61%
17:00 +13°C° 0.2 mm 5 m/s 719 mmHg 67%
18:00 +10°C° 0.2 mm 5 m/s 719 mmHg 73%
19:00 +10°C° 0.2 mm 4 m/s 719 mmHg 79%
20:00 +10°C° 0.2 mm 4 m/s 720 mmHg 83%
21:00 +8°C° 0.2 mm 4 m/s 720 mmHg 86%
22:00 +8°C° 0.2 mm 4 m/s 720 mmHg 90%
23:00 +7°C° 0.2 mm 4 m/s 720 mmHg 90%

18 Mai, Mardi

Heure Température Précipitation Vent Pression Humidité
00:00 +7°C° 0.2 mm 5 m/s 720 mmHg 91%
01:00 +7°C° 0.2 mm 5 m/s 720 mmHg 91%
02:00 +7°C° 0 mm 5 m/s 720 mmHg 91%
03:00 +7°C° 0 mm 5 m/s 720 mmHg 91%
04:00 +6°C° 0 mm 5 m/s 720 mmHg 91%
05:00 +7°C° 0 mm 5 m/s 721 mmHg 88%
06:00 +7°C° 0 mm 5 m/s 721 mmHg 86%
07:00 +7°C° 0 mm 5 m/s 721 mmHg 83%
08:00 +8°C° 0.1 mm 5 m/s 722 mmHg 78%
09:00 +9°C° 0.1 mm 6 m/s 722 mmHg 72%
10:00 +10°C° 0.1 mm 7 m/s 722 mmHg 67%
11:00 +10°C° 0.2 mm 6 m/s 723 mmHg 68%
12:00 +10°C° 0.2 mm 6 m/s 723 mmHg 70%
13:00 +9°C° 0.2 mm 5 m/s 723 mmHg 72%
14:00 +10°C° 0.3 mm 5 m/s 723 mmHg 71%
15:00 +10°C° 0.3 mm 5 m/s 723 mmHg 71%
16:00 +10°C° 0.3 mm 5 m/s 723 mmHg 71%
17:00 +9°C° 0.4 mm 5 m/s 723 mmHg 77%
18:00 +8°C° 0.4 mm 4 m/s 723 mmHg 83%
19:00 +7°C° 0.4 mm 4 m/s 723 mmHg 89%
20:00 +7°C° 0.2 mm 4 m/s 724 mmHg 91%
21:00 +7°C° 0.2 mm 3 m/s 724 mmHg 92%
22:00 +7°C° 0.2 mm 3 m/s 725 mmHg 93%
23:00 +5°C° 0.4 mm 3 m/s 724 mmHg 95%

19 Mai, Mercredi

Heure Température Précipitation Vent Pression Humidité
00:00 +5°C° 0.4 mm 3 m/s 724 mmHg 96%
01:00 +6°C° 0.4 mm 2 m/s 724 mmHg 97%
02:00 +5°C° 0.3 mm 3 m/s 724 mmHg 97%
03:00 +5°C° 0.3 mm 3 m/s 724 mmHg 96%
04:00 +5°C° 0.3 mm 3 m/s 724 mmHg 96%
05:00 +5°C° 0.9 mm 3 m/s 724 mmHg 96%
06:00 +5°C° 0.9 mm 3 m/s 725 mmHg 97%
07:00 +4°C° 0.9 mm 3 m/s 725 mmHg 97%
08:00 +5°C° 0.8 mm 3 m/s 726 mmHg 97%
09:00 +5°C° 0.8 mm 3 m/s 726 mmHg 97%
10:00 +5°C° 0.8 mm 3 m/s 727 mmHg 96%
11:00 +7°C° 0.4 mm 3 m/s 727 mmHg 93%
12:00 +7°C° 0.4 mm 4 m/s 727 mmHg 90%
13:00 +8°C° 0.4 mm 4 m/s 727 mmHg 87%
14:00 +10°C° 0.4 mm 4 m/s 727 mmHg 83%
15:00 +9°C° 0.4 mm 5 m/s 727 mmHg 80%
16:00 +10°C° 0.4 mm 5 m/s 727 mmHg 76%
17:00 +10°C° 0.2 mm 4 m/s 727 mmHg 78%
18:00 +10°C° 0.2 mm 4 m/s 727 mmHg 80%
19:00 +8°C° 0.2 mm 4 m/s 727 mmHg 81%
20:00 +8°C° 0.1 mm 3 m/s 727 mmHg 85%
21:00 +8°C° 0.1 mm 3 m/s 728 mmHg 88%
22:00 +7°C° 0.1 mm 3 m/s 728 mmHg 91%
23:00 +7°C° 0.2 mm 3 m/s 728 mmHg 92%

20 Mai, Jeudi

Heure Température Précipitation Vent Pression Humidité
00:00 +6°C° 0.2 mm 4 m/s 729 mmHg 93%
01:00 +6°C° 0.2 mm 4 m/s 729 mmHg 95%
02:00 +5°C° 0 mm 3 m/s 729 mmHg 95%
03:00 +5°C° 0 mm 3 m/s 729 mmHg 95%
04:00 +5°C° 0 mm 3 m/s 729 mmHg 96%
05:00 +6°C° 0 mm 2 m/s 729 mmHg 93%
06:00 +7°C° 0 mm 2 m/s 729 mmHg 91%
07:00 +9°C° 0 mm 1 m/s 729 mmHg 88%
08:00 +10°C° 0 mm 2 m/s 729 mmHg 77%
09:00 +12°C° 0 mm 2 m/s 729 mmHg 66%
10:00 +13°C° 0 mm 3 m/s 729 mmHg 56%
11:00 +14°C° 0 mm 3 m/s 729 mmHg 52%
12:00 +16°C° 0 mm 3 m/s 728 mmHg 49%
13:00 +17°C° 0 mm 3 m/s 728 mmHg 46%
14:00 +17°C° 0 mm 3 m/s 728 mmHg 47%
15:00 +17°C° 0 mm 3 m/s 728 mmHg 48%
16:00 +17°C° 0 mm 3 m/s 727 mmHg 49%
17:00 +16°C° 0 mm 2 m/s 727 mmHg 57%
18:00 +15°C° 0 mm 2 m/s 727 mmHg 64%
19:00 +14°C° 0 mm 2 m/s 727 mmHg 72%
20:00 +13°C° 0 mm 1 m/s 727 mmHg 76%
21:00 +11°C° 0 mm 1 m/s 727 mmHg 80%
22:00 +10°C° 0 mm 1 m/s 727 mmHg 84%
23:00 +10°C° 0 mm 1 m/s 727 mmHg 84%
Voir plus

Nous avons besoin de votre consentement

Meteoprog et ses fournisseurs de services peuvent stocker et accéder à des données personnelles telles que des cookies, des identifiants d'appareils ou d'autres technologies similaires sur votre appareil et traiter ces données pour personnaliser le contenu et les publicités, ainsi que pour fournir des fonctionnalités de médias sociaux et analyser le trafic.

  • Stocker et/ou accéder à des informations sur votre appareil

    Des cookies, des identifiants d'appareils ou d'autres informations peuvent être stockés ou accessibles sur votre appareil aux fins indiquées ci-dessus.

  • Annonces et contenus personnalisés, mesure des annonces et des contenus, connaissance de l'audience et développement de produits

    Les annonces et le contenu peuvent être personnalisés en fonction d'un profil. D'autres données peuvent être ajoutées pour mieux personnaliser les annonces et le contenu. Les performances des publicités et du contenu peuvent être mesurées. Il est possible d'obtenir des informations sur le public qui a vu les publicités et le contenu. Ces données peuvent être utilisées pour développer ou améliorer l'expérience de l'utilisateur, les systèmes et les logiciels.

En cliquant sur "J'accepte", vous autorisez l'utilisation de cookies, des identifiants d'appareils, des balises web ou d'autres technologies similaires. Vos paramètres peuvent être modifiés dans le navigateur de votre appareil.

Dans certains cas, des intérêts légitimes peuvent être invoqués plutôt qu'un consentement. Vous pouvez en savoir plus à ce sujet dans notre Politique de confidentialité et de cookies.